Regional Weather Roundup
Issued by NWS Northern Indiana

Home | Current Version | Previous Version | Text Only | Print | Product List | Glossary Off
Versions: 1 2 3 4 5 6 7 8 9 10 11 12 13 14 15 16 17 18 19 20 21 22 23 24 25 26 27 28 29 30 31 32 33 34 35 36 37 38 39 40 41 42 43 44 45 46 47 48 49 50

000
ASUS43 KIWX 281810
RWRIWX

KIWX WEATHER ROUNDUP
NATIONAL WEATHER SERVICE NORTHERN INDIANA
200 PM EDT SUN AUG 28 2016

NOTE: "FAIR" INDICATES FEW OR NO CLOUDS BELOW 12,000 FEET WITH NO
SIGNIFICANT WEATHER AND/OR OBSTRUCTIONS TO VISIBILITY.

* THESE STATIONS ARE NOT UNDER NWS QUALITY CONTROL. THEY ALSO MAY NOT
  REPORT WEATHER SUCH AS PRECIPITATION OR FOG.

INZ001>027-281900-
NORTHERN INDIANA

CITY           SKY/WX    TMP DP  RH WIND       PRES   REMARKS
GARY*          MOSUNNY   81  75  83 N15       30.20F
VALPARAISO     PTSUNNY   80  73  79 SE8       30.20S
6HR MIN TEMP:  71; 6HR MAX TEMP:  86;

MICHIGAN CITY* MOSUNNY   79  75  89 CALM      30.21S
LAPORTE*       CLOUDY    80  76  89 SE5       30.21R THUNDER
KNOX*          MOSUNNY   86  48  26 CALM      30.18F
SOUTH BEND     SUNNY     82  72  71 N7        30.19F
6HR MIN TEMP:  72; 6HR MAX TEMP:  84; 6HR PCP: TRACE;

ELKHART*       CLOUDY    81  72  74 E6        30.20F
GOSHEN         SUNNY     85  72  65 VRB3      30.19F
6HR MIN TEMP:  73; 6HR MAX TEMP:  86;

MONTICELLO*    MOSUNNY   87  68  54 CALM      30.18F
6HR MIN TEMP:  69; 6HR MAX TEMP:  87;

LOGANSPORT*    MOSUNNY   86  72  62 CALM      30.19F
ROCHESTER*     MOSUNNY   88  73  62 CALM      30.19F HX  96
WARSAW*        CLOUDY    82  73  74 CALM      30.19F
ANGOLA*        MOSUNNY   79  75  89 E5        30.21F
FORT WAYNE     PTSUNNY   88  72  58 VRB3      30.20F
6HR MIN TEMP:  68; 6HR MAX TEMP:  88;

HUNTINGTON*    MOSUNNY   85  73  65 SW3       30.20F
6HR MIN TEMP:  68; 6HR MAX TEMP:  85;

PERU/GRISSOM   PTSUNNY   86  73  64 VRB1      30.19F
6HR MIN TEMP:  72; 6HR MAX TEMP:  87;

MARION*        CLOUDY    85  72  65 CALM      30.21S HAZE
6HR MIN TEMP:  51; 6HR MAX TEMP:  90;


$$
INZ028>050-281900-
CENTRAL INDIANA

CITY           SKY/WX    TMP DP  RH WIND       PRES   REMARKS
LAFAYETTE      MOSUNNY   85  74  69 CALM      30.17F
6HR MIN TEMP:  70; 6HR MAX TEMP:  87;

KOKOMO*        MOSUNNY   84  73  70 CALM      30.20S
6HR MIN TEMP:  70; 6HR MAX TEMP:  88;

MUNCIE*        MOSUNNY   88  73  61 CALM      30.21S HX  95
6HR MIN TEMP:  71; 6HR MAX TEMP:  88;

INDIANAPOLIS   PTSUNNY   86  71  60 CALM      30.19F
6HR MIN TEMP:  73; 6HR MAX TEMP:  87; 6HR PCP: TRACE;


$$
MIZ043>046-050>051-056>058-064>065-071>073-077>080-281900-
SOUTHWEST LOWER MICHIGAN

CITY           SKY/WX    TMP DP  RH WIND       PRES   REMARKS
BATTLE CREEK   MOSUNNY   82  71  69 N6        30.21F
6HR MIN TEMP:  69; 6HR MAX TEMP:  82;

BENTON HARBOR  MOSUNNY   81  68  64 VRB6      30.19F
6HR MIN TEMP:  71; 6HR MAX TEMP:  82;

COLDWATER*     MOSUNNY   83  70  66 N8        30.21S
6HR MIN TEMP:  72; 6HR MAX TEMP:  85;

HILLSDALE*     MOSUNNY   83  70  64 N7        30.22R
6HR MIN TEMP:  51; 6HR MAX TEMP:  84;

HOLLAND        SUNNY     82  67  60 N5        30.21F
6HR MIN TEMP:  71; 6HR MAX TEMP:  82;

GRAND RAPIDS   PTSUNNY   80  64  58 VRB3      30.22F
6HR MIN TEMP:  72; 6HR MAX TEMP:  81;

KALAMAZOO      MOSUNNY   84  69  60 VRB7      30.20F
6HR MIN TEMP:  71; 6HR MAX TEMP:  84;

STURGIS*       MOSUNNY   85  71  64 CALM      30.19F
6HR MIN TEMP:  72; 6HR MAX TEMP:  85; 6HR PCP:  0.01;

THREE RIVERS*  CLOUDY    82  72  69 CALM      30.19F

$$
OHZ001>008-015>018-024>025-281900-
NORTHWEST OHIO

CITY           SKY/WX    TMP DP  RH WIND       PRES   REMARKS
WAUSEON*       PTSUNNY   82  73  74 N13       30.21R
DEFIANCE       PTSUNNY   86  72  62 S3        30.19F
6HR MIN TEMP:  71; 6HR MAX TEMP:  87;

FINDLAY        MOSUNNY   88  71  57 S3        30.18F
6HR MIN TEMP:  70; 6HR MAX TEMP:  88;

TOLEDO EXPRESS MOSUNNY   87  74  64 S7        30.19S HX  95
6HR MIN TEMP:  68; 6HR MAX TEMP:  87;

TOLEDO METCALF SUNNY     87  73  62 W5        30.19F
6HR MIN TEMP:  71; 6HR MAX TEMP:  88;

LIMA           PTSUNNY   87  73  62 CALM      30.20F
6HR MIN TEMP:  69; 6HR MAX TEMP:  87; 6HR PCP: TRACE;


$$
AND FOR LAKE MICHIGAN COASTAL AND OPEN LAKE BUOY OBSERVATIONS

STATION/POSITION TEMP    WIND        PRES    VSBY  WAVE
                 AIR SEA DIR/SP/G                  HT/PER
                 (F)     (DEG/KT/KT) (MB)    (MI)  (FT/S)
CALUMET HARBOR    74      50/  8/  9 1022.6S
MICHIGAN CITY     75      10/ 12/ 12   N/A
BURNS HARBOR      76      50/  9/ 12 1023.0F
SAINT JOSEPH      77      10/  9/ 12 1023.4F
SOUTH LAKE BUOY   72 75   50/  8/ 10 1022.6F         1
4 MI NW BRIDGMAN  74 75   10/ 10/ 14 1022.3F         2/ 2
MICHIGAN CITY     76 77   30/ 12/ 14   N/A           2/ 2

$$
&&




USA.gov is the U.S. government's official web portal to all federal, state and local government web resources and services.